Location: Acton
(51.4942°N, 0.2232°W)
Time: 18:34:51
(UTC+00:00)

CZ-2C R/B - Visible Passes

Search period start: 15 January 2021 00:00
Search period end: 25 January 2021 00:00
Orbit: 639 x 705 km, 98.4° (Epoch: 15 January)

Date Brightness Start Highest point End Pass type
(mag) Time Alt. Az. Time Alt. Az. Time Alt. Az.
15 Jan 5.7 06:24:46 10° ESE 06:28:25 26° ENE 06:32:04 10° N visible
16 Jan 4.7 06:57:17 10° SE 07:01:34 47° ENE 07:05:50 10° N visible
17 Jan 6.3 05:55:45 10° E 05:58:19 15° NE 06:00:53 10° NNE visible
18 Jan 5.6 06:27:37 10° ESE 06:31:20 27° ENE 06:35:02 10° N visible
19 Jan 4.6 07:00:12 10° SE 07:04:28 49° ENE 07:08:46 10° N visible
20 Jan 6.3 05:58:33 10° E 06:01:13 16° NE 06:03:54 10° NNE visible
21 Jan 5.6 06:30:28 10° ESE 06:34:14 28° ENE 06:38:00 10° N visible
22 Jan 4.5 07:03:06 10° SE 07:07:23 52° ENE 07:11:43 10° N visible
23 Jan 6.3 06:01:20 10° E 06:04:07 17° NE 06:06:55 10° NNE visible
24 Jan 5.5 06:33:19 10° ESE 06:37:08 29° ENE 06:40:58 10° N visible
